Regional Weather Roundup
Issued by NWS

Home | Current Version | Previous Version | Graphics & Text | Print | Product List | Glossary On
Versions: 1 2 3 4 5 6 7 8 9 10 11 12 13 14 15 16 17 18 19 20 21 22 23 24 25 26 27 28 29 30 31 32 33 34 35 36 37 38 39 40 41 42 43 44 45 46 47 48 49 50
000
ASUS45 KBOU 241707
RWRCO

WEATHER ROUNDUP FOR COLORADO
NATIONAL WEATHER SERVICE DENVER/BOULDER CO
1100 AM MDT SUN SEP 24 2017

NOTE: "FAIR" INDICATES FEW OR NO CLOUDS BELOW 12000 FEET WITH NO
SIGNIFICANT WEATHER AND/OR OBSTRUCTIONS TO VISIBILITY.

COZ001>005-013-030-031-241800-
...NORTHWEST COLORADO...

CITY           SKY/WX    TMP DP  RH WIND       PRES   REMARKS
CRAIG          PTSUNNY   47  40  76 N3        29.93S
HAYDEN         PTSUNNY   49  36  61 CALM      29.94R
MEEKER         PTSUNNY   44  41  89 VRB3      29.93S
RABBIT EARS PA FAIR      36  32  87 SE6       30.04R
STEAMBOAT SPGS FAIR      48  38  67 CALM      29.92R
WALDEN         CLOUDY    36  34  93 CALM      30.00S
$$

COZ006>008-011-241800-
...WEST CENTRAL VALLEYS...

CITY           SKY/WX    TMP DP  RH WIND       PRES   REMARKS
GRAND JUNCTION FAIR      54  44  69 NW14      29.92R
MONTROSE       FAIR      55  35  47 NW8       29.93S
EAGLE          PTSUNNY   43  37  79 CALM      29.97S
RIFLE          PTSUNNY   50  43  77 NW3       29.91F
DELTA          NOT AVBL
NUCLA          FAIR      54  27  35 SW9G17    29.99F
$$

COZ017>023-064>068-241800-
...SOUTHWEST COLORADO...

CITY           SKY/WX    TMP DP  RH WIND       PRES   REMARKS
DURANGO        FAIR      51  35  54 SE8       30.02S
CORTEZ         FAIR      56  33  42 SW14G20   29.98S
PAGOSA SPRINGS FAIR      49  23  35 S7        30.06R
TELLURIDE      FAIR      45  17  32 SE15G22   30.03R
WOLF CREEK PAS FAIR      28  23  80 S15G28    30.18S WCI  17
$$

COZ009-010-012-014-032>034-037-058>063-241800-
...CENTRAL COLORADO...

CITY           SKY/WX    TMP DP  RH WIND       PRES   REMARKS
ASPEN          FAIR      51  37  58 N9        29.92S
BUENA VISTA    FAIR      53  30  42 SE21G26   29.99S
COPPER MTN     FAIR      41  21  45 SE16G23   30.10S
BERTHOUD PASS  HAZE      27  18  69 SE33G40   30.12S VSB<1/4 WCI   9
COTTONWOOD PAS FAIR      50  32  50 E20G29    30.04S
GUNNISON       FAIR      54  22  28 NE8G16    29.94F
KREMMLING      PTSUNNY   50  37  62 W5        29.97S
LEADVILLE      FAIR      44  22  41 S16G30    30.00F
MONARCH PASS   FAIR      34  21  60 S9G25     30.23S WCI  26
SALIDA         FAIR      56  32  40 SE13      30.06F
SUNLIGHT       FAIR      36  30  80 S8G17     30.07S
WILKERSON PASS CLOUDY    36  34  93 SW8       30.16F
$$

COZ069>075-241800-
...SAN LUIS VALLEY/SANGRE DE CRISTO MOUNTAINS...

CITY           SKY/WX    TMP DP  RH WIND       PRES   REMARKS
ALAMOSA        FAIR      57  28  33 S17G25    30.00F
DEL NORTE      FAIR      50  22  33 CALM      30.01F
LA VETA PASS   FAIR      46  30  53 SW12G24   30.23S
SAGUACHE       FAIR      50  32  50 E7        30.01F
$$

COZ035-036-038>040-241800-
...NORTHERN COLORADO FRONT RANGE...

CITY           SKY/WX    TMP DP  RH WIND       PRES   REMARKS
DENVER INTL AP CLOUDY    47  45  93 NE8       30.01S FOG
DMNS CITY PARK   N/A     48  47  97 NE9G17    30.00S
AURORA         DRIZZLE   47  47 100 NE6       30.01S FOG
FRONT RANGE AP CLOUDY    48  46  93 NE5       30.02R FOG
ERIE MUNI ARPT CLOUDY    49  47  92 E6        30.06S FOG
BOULDER MUN AP CLOUDY    48  46  93 E6        30.00F
CENTENNIAL     CLOUDY    48  45  89 E6        30.01R
BROOMFIELD     CLOUDY    46  46 100 CALM      30.02R
FORT COLLINS   LGT RAIN  46  46 100 E10       30.02S FOG
LONGMONT       LGT RAIN  50  47  91 E6        30.03S
$$

COZ041-046-047-076>085-087-088-241800-
...PIKES PEAK/PALMER DIVIDE AND SOUTHERN FOOTHILLS...

CITY           SKY/WX    TMP DP  RH WIND       PRES   REMARKS
COLO. SPRINGS  PTSUNNY   50  46  86 E5        30.02S
A. F. ACADEMY  CLOUDY    49  46  88 CALM      30.01S
SCHRIEVER AFB  CLOUDY    49  47  94 MISG      30.01S
CHEYENNE MTN   PTSUNNY   47  47  97 SE8       29.97F
ELLICOTT       CLOUDY   N/A N/A N/A E8        30.00S
FALCON         CLOUDY    48  46  94 SE5       30.04S FOG
FORT CARSON    CLOUDY    51  47  87 E3        29.99F
LIMON            N/A    N/A N/A N/A MISG      30.01R
MONUMENT HILL  CLOUDY    43  43 100 E5        30.04S FOG
CANON CITY     CLOUDY    54  52  94 E8        29.98F
WALSENBURG     CLOUDY    54  48  82 S7        29.99S
TRINIDAD       CLOUDY    51  49  92 E5        29.99F
$$

COZ042>045-048>051-090-091-241800-
...NORTHEAST COLORADO...

CITY           SKY/WX    TMP DP  RH WIND       PRES   REMARKS
GREELEY ARPT   CLOUDY    47  44  90 NE9       30.03R
AKRON          CLOUDY    47  43  86 NE12      30.01R
BURLINGTON     LGT RAIN  50  49  96 NE10      30.00S
WRAY           CLOUDY    50  50 100 N9        30.02R
YUMA           CLOUDY    45  45 100 N9        30.01R
STERLING       CLOUDY    48  45  87 NE8       30.00S
HOLYOKE        CLOUDY    54  48  82 N14       30.01S
FORT MORGAN    CLOUDY    49  42  79 NE10      30.02F
$$

COZ086-089-092>099-241800-
...SOUTHEAST COLORADO...

CITY           SKY/WX    TMP DP  RH WIND       PRES   REMARKS
PUEBLO         CLOUDY    54  48  80 E5        29.98R
LA JUNTA       CLOUDY    56  53  90 CALM      29.97S
LAMAR          LGT RAIN  58  56  93 NE8       29.93S
SPRINGFIELD      N/A     55  55 100 N12       29.94S
$$



USA.gov is the U.S. government's official web portal to all federal, state and local government web resources and services.